Weather History for Copper Harbor, MI

Change the Weather History Date:

Tuesday, February 19, 2013

  Actual Average Record
Temperature  
Mean Temperature 19 °F -  
Max Temperature 28 °F 25 °F 37 °F (2002)
Min Temperature 10 °F 14 °F 0 °F (2005)
Degree Days  
Heating Degree Days 46    
Moisture  
Dew Point 14 °F    
Average Humidity 89    
Maximum Humidity 96    
Minimum Humidity 80    
Precipitation  
Precipitation 0.00 in - - ()
Sea Level Pressure  
Sea Level Pressure 29.72 in    
Wind  
Wind Speed 32 mph (NNE)    
Max Wind Speed 39 mph    
Max Gust Speed 52 mph    
Averages and records for this station are not official NWS values.
T = Trace of Precipitation, MM = Missing Value Source: NWS Daily Summary

Daily Weather History Graph

Daily Weather History Graph

Search for Another Location

Airport:

Trip Planner

Search our weather history database for the weather conditions in past years. The results will help you decide how hot, cold, wet, or windy it might be!

Date:

Astronomy

Feb. 19, 2013 Rise Set
Actual Time 7:49 AM EST 6:21 PM EST
Civil Twilight 7:18 AM EST 6:53 PM EST
Nautical Twilight 6:42 AM EST 7:28 PM EST
Astronomical Twilight 6:07 AM EST 8:04 PM EST
Moon 12:40 PM EST (2/19) 3:34 AM EST (2/19)
Length of Visible Light 11h 34m
Length of Day
10h 32m
Waxing Gibbous, 67% of the Moon is Illuminated
Feb 19
Waxing Gibbous
Feb 25
Full
Mar 4
Last Quarter
Mar 11
New
Mar 19
First Quarter

Hourly Weather History & Observations

Time (EST) Temp. Windchill Dew Point Humidity Pressure Visibility Wind Dir Wind Speed Gust Speed Precip Events Conditions
12:51 AM 28.0 °F 13.6 °F 27.0 °F 96% 29.47 in - NNE 24.2 mph 31.1 mph N/A   Unknown
1:51 AM 26.1 °F 9.8 °F 25.0 °F 96% 29.47 in - NNE 28.8 mph 34.5 mph N/A   Unknown
2:51 AM 26.1 °F 10.7 °F 24.1 °F 92% 29.46 in - NNE 25.3 mph 38.0 mph N/A   Unknown
3:51 AM 25.0 °F 7.8 °F 23.0 °F 92% 29.46 in - NNE 31.1 mph 40.3 mph N/A   Unknown
4:51 AM 24.1 °F 6.9 °F 21.9 °F 91% 29.47 in - NNE 29.9 mph 43.7 mph N/A   Unknown
5:51 AM 21.9 °F 3.4 °F 19.9 °F 92% 29.50 in - NNE 32.2 mph 44.9 mph N/A   Unknown
6:51 AM 21.0 °F 1.2 °F 18.0 °F 88% 29.52 in - NNE 36.8 mph 47.2 mph N/A   Unknown
7:51 AM 19.0 °F -2.1 °F 17.1 °F 92% 29.54 in - NNE 39.1 mph 48.3 mph N/A   Unknown
8:51 AM 17.1 °F -4.1 °F 15.1 °F 92% 29.60 in - NNE 35.7 mph 49.5 mph N/A   Unknown
9:51 AM 16.0 °F -5.8 °F 12.9 °F 88% 29.63 in - NNE 36.8 mph 48.3 mph N/A   Unknown
10:51 AM 16.0 °F -5.5 °F 12.9 °F 88% 29.66 in - NNE 35.7 mph 48.3 mph N/A   Unknown
11:51 AM 15.1 °F -7.3 °F 12.0 °F 88% 29.69 in - NNE 38.0 mph 51.8 mph N/A   Unknown
12:51 PM 14.0 °F -8.8 °F 10.9 °F 88% 29.72 in - NNE 38.0 mph 50.6 mph N/A   Unknown
1:51 PM 12.9 °F -9.5 °F 10.0 °F 88% 29.75 in - NNE 34.5 mph 46.0 mph N/A   Unknown
2:51 PM 12.0 °F -11.0 °F 9.0 °F 88% 29.79 in - NNE 35.7 mph 44.9 mph N/A   Unknown
3:51 PM 10.9 °F -12.2 °F 8.1 °F 88% 29.85 in - North 34.5 mph 46.0 mph N/A   Unknown
4:51 PM 10.9 °F -12.5 °F 8.1 °F 88% 29.88 in - NNE 35.7 mph 42.6 mph N/A   Unknown
5:51 PM 12.0 °F -9.8 °F 8.1 °F 84% 29.91 in - NNE 31.1 mph 46.0 mph N/A   Unknown
7:51 PM 12.9 °F -10.6 °F 10.0 °F 88% 29.99 in - NNE 39.1 mph 49.5 mph N/A   Unknown
8:51 PM 14.0 °F -8.0 °F 9.0 °F 80% 30.01 in - NE 34.5 mph 48.3 mph N/A   Unknown
9:51 PM 12.9 °F -10.0 °F 9.0 °F 84% 30.04 in - NNE 36.8 mph 49.5 mph N/A   Unknown
10:51 PM 12.0 °F -11.3 °F 8.1 °F 84% 30.07 in - NNE 36.8 mph 47.2 mph N/A   Unknown
11:51 PM 12.0 °F -10.7 °F 8.1 °F 84% 30.10 in - NNE 34.5 mph 47.2 mph N/A   Unknown